Location: Czekanka
(50.4925°N, 19.2643°E)
Time: 02:29:15
(UTC+00:00)

CZ-2C R/B - Pass Details

Date: 20 September 2024
Orbit: 703 x 903 km, 98.2° (Epoch: 14 October)

Event Time Altitude Azimuth Distance (km) Brightness Sun altitude
Rises 02:01:55 0° 7° (N) 3,528 7.0 -22.6°
Reaches altitude 10° 02:04:38 10° 357° (N) 2,592 6.1 -22.2°
Maximum altitude 02:09:27 28° 301° (WNW) 1,634 4.4 -21.6°
Enters shadow 02:10:05 27° 290° (WNW) 1,654 4.4 -21.5°
